Santa Maria, CA

7:18 PM PDT on June 23, 2017 (GMT -0700)
Santa Maria Public Airport / Captain G. Allan Hancock Field

Weather History for KSMX - April, 2014

Change the Weather History Date:

Thursday, April 10, 2014

  Actual Average Record
Temperature  
Mean Temperature 59 °F 55 °F  
Max Temperature 68 °F 67 °F 90 °F (1968)
Min Temperature 50 °F 43 °F 34 °F (1929)
Degree Days  
Heating Degree Days 6 10  
Month to date heating degree days 62 101  
Since 1 July heating degree days 1356 2274  
Cooling Degree Days 0 0  
Month to date cooling degree days 2 0  
Year to date cooling degree days 14 2  
Growing Degree Days 9 (Base 50)    
Moisture  
Dew Point 49 °F    
Average Humidity 73    
Maximum Humidity 89    
Minimum Humidity 56    
Precipitation  
Precipitation 0.00 in 0.03 in 0.82 in (2012)
Month to date precipitation 0.72 0.44  
Year to date precipitation 3.88 8.82  
Since 1 July precipitation 4.38  
Sea Level Pressure  
Sea Level Pressure 30.00 in    
Wind  
Wind Speed 4 mph (NW)    
Max Wind Speed 9 mph    
Max Gust Speed -    
Visibility 5 miles    
Events Fog    
T = Trace of Precipitation, MM = Missing Value Source: NWS Daily Summary

Daily Weather History Graph

Daily Weather History Graph

Search for Another Location

Airport or City:

Trip Planner

Search our weather history database for the weather conditions in past years. The results will help you decide how hot, cold, wet, or windy it might be!

Date:

Astronomy

Apr. 10, 2014 Rise Set
Actual Time 6:36 AM PDT 7:30 PM PDT
Civil Twilight 6:10 AM PDT 7:56 PM PDT
Nautical Twilight 5:40 AM PDT 8:26 PM PDT
Astronomical Twilight 5:08 AM PDT 8:58 PM PDT
Moon 3:28 PM PDT (4/10) 3:51 AM PDT (4/10)
Length of Visible Light 13h 45m
Length of Day
12h 53m
Waxing Gibbous, 80% of the Moon is Illuminated
Apr 10
Waxing Gibbous
Apr 15
Full
Apr 22
Last Quarter
Apr 28
New
May 6
First Quarter

Hourly Weather History & Observations

Time (PDT) Temp. Dew Point Humidity Pressure Visibility Wind Dir Wind Speed Gust Speed Precip Events Conditions
12:24 AM 53.6 °F 50.0 °F 88% 30.04 in 2.5 mi Variable 3.5 mph - N/A   Overcast
12:51 AM 53.1 °F 50.0 °F 89% 30.04 in 1.2 mi Calm Calm - N/A   Overcast
1:01 AM 51.8 °F 50.0 °F 94% 30.04 in 0.5 mi ENE 3.5 mph - N/A Fog Fog
1:23 AM 53.6 °F 50.0 °F 88% 30.04 in 1.2 mi Calm Calm - N/A   Overcast
1:28 AM 53.6 °F 50.0 °F 88% 30.04 in 2.0 mi North 3.5 mph - N/A   Overcast
1:46 AM 53.6 °F 50.0 °F 88% 30.03 in 3.0 mi Calm Calm - N/A   Overcast
1:51 AM 53.1 °F 48.9 °F 86% 30.04 in 3.0 mi NW 3.5 mph - N/A   Overcast
2:51 AM 53.1 °F 48.9 °F 86% 30.02 in 4.0 mi Calm Calm - N/A   Overcast
3:51 AM 53.1 °F 48.0 °F 83% 30.01 in 4.0 mi NNW 3.5 mph - N/A   Haze
4:07 AM 53.6 °F 48.2 °F 82% 30.00 in 4.0 mi Calm Calm - N/A   Haze
4:51 AM 52.0 °F 46.9 °F 83% 30.01 in 6.0 mi NNW 4.6 mph - N/A   Haze
5:24 AM 51.8 °F 48.2 °F 88% 29.99 in 2.5 mi Calm Calm - N/A   Overcast
5:31 AM 51.8 °F 48.2 °F 88% 29.99 in 1.2 mi Calm Calm - N/A   Overcast
5:40 AM 51.8 °F 48.2 °F 88% 29.99 in 1.5 mi Calm Calm - N/A   Overcast
5:51 AM 51.1 °F 48.0 °F 89% 30.00 in 1.0 mi Calm Calm - N/A   Overcast
6:00 AM 51.8 °F 48.2 °F 88% 29.99 in 0.8 mi Calm Calm - N/A   Mist
6:17 AM 51.8 °F 48.2 °F 88% 29.99 in 1.2 mi Calm Calm - N/A   Overcast
6:25 AM 51.8 °F 48.2 °F 88% 29.99 in 2.0 mi East 3.5 mph - N/A   Overcast
6:51 AM 51.1 °F 46.9 °F 86% 30.01 in 1.8 mi ENE 3.5 mph - N/A   Overcast
7:22 AM 51.8 °F 46.4 °F 82% 30.00 in 5.0 mi Calm Calm - N/A   Haze
7:29 AM 51.8 °F 46.4 °F 82% 30.00 in 2.5 mi ESE 3.5 mph - N/A   Haze
7:51 AM 51.1 °F 46.0 °F 83% 30.01 in 3.0 mi Calm Calm - N/A   Haze
7:59 AM 50.0 °F 46.4 °F 87% 29.99 in 2.0 mi Calm Calm - N/A   Mostly Cloudy
8:32 AM 51.8 °F 46.4 °F 82% 29.99 in 5.0 mi Calm Calm - N/A   Haze
8:51 AM 54.0 °F 46.0 °F 75% 30.01 in 7.0 mi Calm Calm - N/A   Scattered Clouds
9:51 AM 59.0 °F 46.0 °F 62% 30.01 in 9.0 mi Calm Calm - N/A   Scattered Clouds
10:51 AM 64.9 °F 48.0 °F 54% 30.01 in 9.0 mi WNW 3.5 mph - N/A   Scattered Clouds
11:51 AM 66.9 °F 51.1 °F 57% 30.00 in 10.0 mi West 8.1 mph - N/A   Scattered Clouds
12:51 PM 66.0 °F 51.1 °F 59% 30.00 in 10.0 mi WNW 8.1 mph - N/A   Scattered Clouds
1:51 PM 63.0 °F 50.0 °F 63% 29.99 in 10.0 mi NNW 8.1 mph - N/A   Overcast
2:51 PM 62.1 °F 50.0 °F 65% 29.97 in 10.0 mi WNW 5.8 mph - N/A   Overcast
3:51 PM 62.1 °F 51.1 °F 67% 29.97 in 10.0 mi NW 5.8 mph - N/A   Overcast
4:51 PM 62.1 °F 52.0 °F 70% 29.96 in 10.0 mi NW 6.9 mph - N/A   Overcast
5:51 PM 60.1 °F 51.1 °F 72% 29.96 in 10.0 mi WNW 9.2 mph - N/A   Overcast
6:22 PM 57.2 °F 51.8 °F 82% 29.95 in 9.0 mi NW 8.1 mph - N/A   Partly Cloudy
6:26 PM 57.2 °F 51.8 °F 82% 29.95 in 9.0 mi NW 8.1 mph - N/A   Mostly Cloudy
6:51 PM 55.9 °F 51.1 °F 84% 29.97 in 7.0 mi WNW 5.8 mph - N/A   Mostly Cloudy
7:51 PM 55.0 °F 50.0 °F 83% 29.97 in 8.0 mi NW 4.6 mph - N/A   Overcast
8:51 PM 55.0 °F 51.1 °F 86% 30.00 in 7.0 mi Calm Calm - N/A   Overcast
9:51 PM 55.9 °F 51.1 °F 84% 29.99 in 6.0 mi Calm Calm - N/A   Haze
10:46 PM 55.4 °F 50.0 °F 82% 29.96 in 6.0 mi Calm Calm - N/A   Haze
10:51 PM 55.0 °F 50.0 °F 83% 29.97 in 6.0 mi Calm Calm - N/A   Haze
11:51 PM 54.0 °F 50.0 °F 86% 29.95 in 6.0 mi SW 3.5 mph - N/A   Clear